Lid_Strength_Index
4 6 7 6 6 6 6 7 8 7 6 7 8 8 6 5 6 6 5 5 4 4 2 1 1 1 0 0 0 -0 -0 -1 -0 -0 0 0 0 -0 -1 -2 -2 -2 -2 -2
6 7 5 5 5 6 6 7 8 7 7 7 7 8 6 5 6 6 6 5 5 4 3 2 2 1 1 1 0 0 -0 -0 -0 -0 -0 -0 -0 -1 -1 -1 -2 -2 -2 -2
7 6 5 6 6 7 7 7 7 8 8 7 8 9 7 6 6 5 5 4 4 4 3 3 2 2 1 1 1 0 -0 -0 -1 -1 -1 -0 -1 -0 -0 -1 -1 -2 -2 -2
6 5 6 6 7 6 8 6 6 8 9 11 9 13 8 7 7 7 6 5 5 4 3 3 2 3 1 1 0 0 -0 -0 -0 -1 -1 -0 1 1 0 -0 -1 -1 -2 -2
7 6 6 7 6 6 7 5 7 7 9 9 9 12 9 8 8 7 6 5 5 4 3 3 3 2 1 1 1 0 -0 -0 -1 -1 -1 -0 -0 -0 -0 -0 -1 -1 -1 -2
6 4 5 5 5 5 5 7 7 8 8 12 10 11 10 9 8 7 5 5 5 4 3 3 2 3 2 1 1 1 0 -0 -1 -1 -1 -0 -0 -0 0 -0 0 -0 -1 -1
6 6 5 5 6 5 6 8 11 12 13 15 10 11 10 7 6 6 6 5 5 4 4 3 3 3 2 2 1 1 0 0 -0 -0 -1 -0 -0 -0 -0 -0 0 0 0 -0
9 10 6 5 6 7 8 8 11 15 15 13 9 13 10 6 5 5 5 5 4 4 4 3 3 2 2 1 1 1 1 0 -0 -1 -0 -1 -1 -0 -0 -1 -0 0 -0 -0
8 9 6 6 5 6 8 10 7 10 10 12 10 9 7 6 6 6 6 5 5 4 4 3 3 2 2 1 1 1 1 0 -0 -0 -0 -0 -1 -1 -0 -1 -1 -0 -1 -0
7 10 7 6 5 6 7 6 10 10 14 15 12 12 11 8 7 6 6 5 5 4 4 3 2 2 1 1 1 1 0 0 -0 -0 -0 -0 -1 -1 -1 -1 -1 -1 -1 -1
6 8 8 7 8 8 8 8 8 9 10 14 14 12 7 8 7 6 5 5 4 4 4 3 2 2 2 1 1 1 0 0 0 -0 -0 -0 -0 -1 -1 -1 -1 -1 -1 -1
7 8 11 9 7 6 6 8 9 12 12 10 11 12 6 6 5 5 5 5 4 4 3 3 2 3 4 3 2 0 0 1 0 -0 -0 -0 -1 -1 -0 -0 -1 -1 -1 -1
7 9 12 11 8 7 8 8 7 9 9 11 13 12 6 5 5 5 5 5 4 4 4 4 4 4 3 1 1 1 1 0 -0 -0 -0 -0 -0 -0 -0 -0 -0 -1 -1 -1
5 9 10 12 11 8 10 9 8 9 12 11 10 10 8 7 6 5 5 4 4 4 4 4 4 2 2 1 1 1 0 0 -0 -0 -0 0 0 0 0 -0 -0 -1 -1 -0
7 10 9 9 8 8 9 9 9 9 9 12 10 10 8 7 6 6 5 4 4 4 4 3 3 2 2 1 1 1 0 0 0 1 1 1 0 -0 -0 -0 -0 -1 -1 0
7 10 9 10 8 9 10 9 9 9 9 9 9 9 6 5 4 5 5 5 5 4 4 3 3 2 2 2 1 1 1 1 1 1 2 1 1 1 1 1 1 0 0 -0
8 9 10 12 9 10 12 10 9 9 8 8 10 8 6 6 5 5 4 4 5 4 4 3 2 2 2 1 1 1 2 1 1 1 1 1 2 2 1 1 1 0 -0 -1
8 9 9 11 10 16 10 7 7 8 8 7 7 6 6 5 4 4 3 4 4 4 4 2 2 1 1 1 1 1 1 1 1 2 2 2 2 2 1 1 1 -0 -0 -0
7 8 10 12 11 11 10 9 9 9 9 6 7 6 5 5 4 4 4 4 4 3 3 2 1 1 1 1 1 1 1 1 2 2 2 2 1 1 1 0 1 -0 -0 0
7 7 9 10 13 15 10 7 6 6 11 6 5 5 6 5 7 6 4 3 3 3 2 1 1 1 1 1 1 1 1 1 1 2 2 1 1 0 1 -0 -0 -0 -0 0
10 9 11 10 12 10 7 6 5 13 11 5 4 4 5 6 5 3 3 4 3 3 3 1 1 1 1 1 1 1 1 1 1 1 1 1 -0 -0 -0 -0 -0 -0 0 0
10 11 10 10 12 14 6 6 9 7 4 4 4 4 4 4 3 3 4 4 4 4 4 2 1 1 1 1 1 1 1 0 0 0 0 0 -0 -0 0 -0 -0 -0 0 1
11 9 10 10 11 6 5 5 4 4 5 4 4 3 3 4 3 4 4 4 4 4 4 3 1 1 1 1 1 1 0 -0 -0 0 0 0 -0 -0 -0 -0 0 1 0 1
8 6 8 9 7 6 5 3 3 3 4 3 2 3 3 4 3 3 4 4 3 3 4 4 3 2 1 1 0 0 -0 -0 0 0 0 0 0 1 -0 0 1 1 1 2
7 7 8 8 6 5 4 4 3 3 3 3 2 3 4 3 3 3 4 4 3 3 3 3 4 3 1 0 0 -0 -0 -0 0 0 0 1 1 1 1 0 1 2 2 5
5 7 8 7 5 4 5 4 4 4 4 4 4 3 3 2 2 3 4 3 3 3 3 3 3 3 3 2 1 0 -0 -0 1 1 2 2 2 2 2 3 3 6 6 7